Cloud_Cover
0 0 0 0 0 0 0 0 0 0 0 0 0 0 0 0 0 0 0 0 0 0 0 0 0 0 0 0 0 0 0 89 100 100 100 100 100 100
5 3 0 0 0 0 0 0 0 4 4 0 0 0 0 0 0 0 0 0 0 0 0 0 0 0 0 0 0 0 0 1 22 100 100 100 100 100
0 0 0 0 0 0 0 0 0 5 5 1 0 0 0 0 0 0 0 0 0 0 0 0 0 0 0 0 0 0 0 0 8 100 100 100 100 100
0 0 0 0 0 5 5 3 5 5 5 5 0 0 0 0 0 0 0 0 0 0 0 0 0 0 0 0 0 0 0 0 0 1 71 100 100 100
0 0 0 0 0 4 5 5 5 5 5 5 5 2 4 4 2 0 0 0 0 0 0 0 0 0 0 0 0 0 0 0 0 0 0 100 100 100
0 3 5 5 5 5 5 5 5 5 5 5 8 6 5 3 5 5 4 5 2 0 0 0 0 0 0 0 0 0 0 0 0 0 0 88 100 100
5 5 5 5 5 5 58 18 36 78 97 95 82 68 5 5 5 5 5 5 5 0 5 2 0 0 0 0 0 0 0 0 2 0 0 25 100 100
5 5 5 5 18 75 90 79 98 99 99 89 91 92 90 38 5 31 50 26 68 3 5 5 5 0 0 0 0 0 0 0 9 15 0 4 98 100
5 5 5 5 5 5 5 40 48 61 68 39 72 26 5 5 5 5 9 77 99 95 96 69 5 5 0 0 0 0 0 0 1 0 0 0 23 97
5 5 5 5 10 38 5 5 5 5 6 27 79 8 5 5 5 24 37 43 5 5 5 13 5 5 3 0 2 0 2 2 1 0 0 0 11 98
5 5 17 9 46 90 97 68 43 8 5 56 97 96 99 100 93 99 86 83 56 5 5 46 5 8 1 0 0 97 34 0 2 0 0 0 8 97
5 5 70 85 100 100 92 77 95 69 46 53 70 89 90 9 22 41 5 86 83 35 25 89 6 24 34 6 89 68 3 0 0 0 0 0 21 100
5 9 8 96 100 100 99 99 93 80 11 6 9 27 11 25 15 5 5 54 70 74 5 75 95 40 5 5 1 5 3 5 0 0 1 0 0 91
68 16 42 97 95 100 100 94 100 100 99 100 85 51 10 11 5 5 5 48 28 5 5 6 84 79 82 66 15 5 5 5 4 4 0 5 0 7
98 68 99 100 97 89 83 17 80 62 86 93 78 55 73 97 25 5 60 65 22 5 5 5 5 5 5 11 12 5 5 5 2 2 40 5 5 2
10 74 79 98 88 94 99 61 56 9 64 66 38 5 4 4 5 5 5 5 5 7 5 86 85 18 66 31 15 6 5 5 5 1 5 5 5 5
97 91 95 89 78 35 19 45 5 5 5 36 42 52 80 36 5 6 76 31 85 100 64 99 98 93 100 100 97 74 57 5 5 5 5 5 5 5
96 100 98 98 47 19 29 46 100 96 94 100 100 99 97 74 84 88 90 37 36 6 13 73 100 100 97 63 30 80 96 76 5 5 5 36 7 5
93 98 93 8 5 6 76 95 96 97 100 100 100 100 97 46 62 98 99 100 100 99 48 42 98 73 99 100 8 5 33 5 5 10 100 100 98 39
72 100 96 40 44 57 81 89 85 91 100 100 100 100 100 100 100 73 6 79 15 9 89 98 96 36 91 86 51 5 38 48 25 47 91 94 85 5
93 99 97 100 93 86 90 99 99 92 100 100 100 100 100 100 100 100 100 100 98 96 100 100 75 85 45 10 93 60 5 5 5 9 12 77 100 53
100 100 96 97 100 100 98 84 83 95 100 100 100 100 100 100 100 86 94 100 100 95 51 72 98 100 76 96 52 5 5 5 5 5 5 5 5 25
94 100 100 100 97 100 31 18 23 93 99 100 100 100 100 100 99 86 98 100 100 100 96 100 91 100 47 84 53 42 5 5 5 5 35 5 5 1